Rifle, CO

5:23 AM MDT on May 29, 2017 (GMT -0600)
Garfield County Regional

Weather History for KRIL - January, 2013

Change the Weather History Date:

Wednesday, January 2, 2013

  Actual Average Record
Temperature  
Mean Temperature 13 °F 23 °F  
Max Temperature 26 °F 34 °F 58 °F (1934)
Min Temperature -1 °F 11 °F -20 °F (1979)
Degree Days  
Heating Degree Days 52 42  
Month to date heating degree days 107 84  
Since 1 July heating degree days 2622 2848  
Cooling Degree Days 0 0  
Month to date cooling degree days 0 0  
Year to date cooling degree days 0 0  
Moisture  
Dew Point 5 °F    
Average Humidity 73    
Maximum Humidity 91    
Minimum Humidity 55    
Precipitation  
Precipitation T in 0.03 in 0.58 in (1934)
Month to date precipitation T 0.06  
Year to date precipitation T 0.06  
Sea Level Pressure  
Sea Level Pressure 30.49 in    
Wind  
Wind Speed 2 mph (SE)    
Max Wind Speed 9 mph    
Max Gust Speed 12 mph    
Visibility 10 miles    
Events      
T = Trace of Precipitation, MM = Missing Value Source: NWS Daily Summary

Daily Weather History Graph

Daily Weather History Graph

Search for Another Location

Airport or City:

Trip Planner

Search our weather history database for the weather conditions in past years. The results will help you decide how hot, cold, wet, or windy it might be!

Date:

Astronomy

Jan. 02, 2013 Rise Set
Actual Time 7:31 AM MST 4:58 PM MST
Civil Twilight 7:01 AM MST 5:29 PM MST
Nautical Twilight 6:27 AM MST 6:02 PM MST
Astronomical Twilight 5:55 AM MST 6:35 PM MST
Moon 10:33 PM MST (1/2) 10:16 AM MST (1/2)
Length of Visible Light 10h 27m
Length of Day
9h 27m
Waning Gibbous, 74% of the Moon is Illuminated
Jan 2
Waning Gibbous
Jan 4
Last Quarter
Jan 11
New
Jan 18
First Quarter
Jan 26
Full

Hourly Weather History & Observations

Time (MST) Temp. Windchill Dew Point Humidity Pressure Visibility Wind Dir Wind Speed Gust Speed Precip Events Conditions
12:53 AM 10.9 °F - 6.1 °F 81% 30.49 in 10.0 mi Calm Calm - N/A   Overcast
1:53 AM 12.0 °F - 6.1 °F 77% 30.48 in 10.0 mi Calm Calm - N/A   Overcast
2:53 AM 12.0 °F 5.9 °F 7.0 °F 80% 30.47 in 10.0 mi SE 3.5 mph - N/A   Overcast
3:53 AM 12.0 °F - 7.0 °F 80% 30.47 in 9.0 mi Calm Calm - N/A   Overcast
5:53 AM 12.0 °F - 8.1 °F 84% 30.51 in 6.0 mi Calm Calm - 0.00 in   Overcast
6:53 AM 9.0 °F - 6.1 °F 88% 30.55 in 9.0 mi Calm Calm - N/A   Mostly Cloudy
7:53 AM 3.0 °F -6.4 °F 1.0 °F 91% 30.60 in 9.0 mi SE 4.6 mph - N/A   Clear
8:53 AM 6.1 °F - 3.0 °F 87% 30.58 in 7.0 mi Calm Calm - N/A   Overcast
9:53 AM 10.0 °F - 6.1 °F 84% 30.56 in 8.0 mi Calm Calm - N/A   Overcast
10:10 AM 10.4 °F - 6.8 °F 85% 30.31 in 10.0 mi Calm Calm - N/A   Scattered Clouds
10:53 AM 17.1 °F - 8.1 °F 68% 30.51 in 10.0 mi Calm Calm - N/A   Clear
11:53 AM 21.9 °F - 10.9 °F 63% 30.45 in 10.0 mi Calm Calm - N/A   Overcast
12:53 PM 19.9 °F - 10.9 °F 68% 30.43 in 10.0 mi Calm Calm - N/A   Partly Cloudy
1:53 PM 24.1 °F - 10.9 °F 57% 30.39 in 10.0 mi Calm Calm - N/A   Scattered Clouds
2:53 PM 23.0 °F - 10.9 °F 60% 30.38 in 10.0 mi Calm Calm - N/A   Clear
3:53 PM 23.0 °F 18.4 °F 10.9 °F 60% 30.39 in 10.0 mi ESE 3.5 mph - N/A   Clear
4:53 PM 18.0 °F - 9.0 °F 68% 30.43 in 10.0 mi Calm Calm - N/A   Clear
5:53 PM 12.9 °F 6.9 °F 6.1 °F 74% 30.46 in 10.0 mi SW 3.5 mph - N/A   Clear
6:53 PM 12.9 °F - 3.9 °F 67% 30.49 in 10.0 mi Calm Calm - N/A   Clear
7:53 PM 8.1 °F -3.2 °F -0.0 °F 70% 30.55 in 10.0 mi East 6.9 mph - N/A   Clear
8:53 PM 5.0 °F -2.1 °F -2.0 °F 73% 30.57 in 10.0 mi ESE 3.5 mph - N/A   Clear
9:53 PM 3.0 °F -8.0 °F -4.0 °F 73% 30.59 in 10.0 mi ESE 5.8 mph - N/A   Clear
10:53 PM 5.0 °F - -2.9 °F 70% 30.57 in 10.0 mi Calm Calm - N/A   Clear
11:53 PM 3.0 °F -9.3 °F -4.0 °F 73% 30.56 in 10.0 mi ESE 6.9 mph - N/A   Clear